Location: Kronheide
(53.2255°N, 14.5275°E)
Time: 09:30:01
(UTC+00:00)

Daily predictions for brighter satellites

Satellite Brightness Start Highest point End
(mag) Time Altitude Azimuth Time Altitude Azimuth Time Altitude Azimuth
Cosmos 1939 Rocket 3.6 15:21:13 10° SE 15:24:53 33° ENE 15:28:31 10° N
Cosmos 1666 3.9 15:23:41 10° NNE 15:26:31 20° ENE 15:29:19 10° ESE
Cosmos 1818 3.7 15:22:15 10° NW 15:27:40 55° NE 15:33:03 10° ESE
Meteor 1-20 Rocket 4.3 15:22:14 10° N 15:28:06 75° ENE 15:33:57 10° SSE
DELTA 2 DEB (DPAF) 4.2 15:23:56 10° NNE 15:28:26 90° SSW 15:32:54 10° SSW
Cosmos 1763 Rocket 3.6 15:23:44 10° S 15:28:44 62° ESE 15:33:50 10° NNE
SeaSat 1 2.6 15:24:09 10° NNE 15:29:07 84° NW 15:34:03 10° SW
Cosmos 1408 Rocket 4.1 15:24:49 10° NNW 15:29:09 63° W 15:33:30 10° S
Cosmos 1782 4.0 15:25:55 10° SE 15:29:10 24° E 15:32:25 10° NE
SL-08 R/B 3.7 15:25:02 10° NNE 15:29:34 45° E 15:34:01 10° S
ISS -1.5 15:27:38 10° W 15:30:35 28° SSW 15:33:32 10° SSE
NOAA 12 4.2 15:27:13 10° SSE 15:32:27 61° ENE 15:37:41 10° N
CZ-4C R/B 2.9 15:26:50 10° NW 15:33:43 82° NE 15:41:58 10° SE
NOSS 3-4 (A) 4.4 15:28:49 10° WNW 15:34:36 35° N 15:41:01 10° ENE
NOSS 3-4 (C) 4.4 15:28:54 10° WNW 15:34:41 35° N 15:41:06 10° ENE
NOSS 2-1 (C) 4.3 15:32:29 10° W 15:35:24 29° NNW 15:38:41 10° NE
Cosmos 1340 Rocket 3.4 15:32:01 10° NNW 15:36:05 64° W 15:40:07 10° S
ATLAS 2AS CENTAUR R/B 3.7 15:29:51 10° WNW 15:37:01 39° N 15:43:47 10° ENE
ADEOS 3.9 15:33:28 10° S 15:38:41 74° WSW 15:43:57 10° NNW
Cosmos 841 Rocket 4.1 15:34:22 10° S 15:39:04 37° ESE 15:43:47 10° NE
Cosmos 2034 Rocket 4.0 15:33:24 10° S 15:39:32 76° E 15:45:43 10° NNE
Cosmos 1743 Rocket 3.6 15:36:35 10° NNW 15:40:56 84° WSW 15:45:16 10° S
Cosmos 1697 Rocket 3.5 15:35:28 10° NW 15:40:59 59° WSW 15:46:29 10° SSE
USA 307 2.9 15:38:21 10° W 15:42:38 83° N 15:46:54 10° E
Cosmos 372 Rocket 4.0 15:37:41 10° NNW 15:42:57 77° ENE 15:48:13 10° SSE
COSMOS 2428 4.4 15:39:51 10° NNW 15:43:20 16° NNE 15:46:42 10° NE
Cosmos 2322 Rocket 3.0 15:38:27 10° NNW 15:43:30 31° NE 15:48:33 10° ESE
CZ-4C R/B 3.1 15:39:54 10° NNE 15:43:44 76° ESE 15:47:21 10° S
Cosmos 1937 Rocket 3.8 15:38:58 10° NNW 15:44:19 74° WSW 15:49:36 10° SSE
NOSS 2-1 (D) 4.4 15:41:59 10° W 15:44:50 27° NNW 15:48:04 10° NE
ERBS 2.8 15:42:27 10° WNW 15:45:30 41° N 15:48:11 13° ENE
Meteor PRIRODA 3.5 15:42:09 10° SSE 15:45:45 76° ENE 15:49:23 10° NNW
Lacrosse 5 rocket 1.3 15:42:23 10° WNW 15:46:13 84° SSW 15:50:17 10° ESE
USA 234 3.3 15:40:21 10° ESE 15:46:55 87° NNE 15:53:29 10° WNW
Cosmos 1980 Rocket 2.3 15:41:32 10° NNW 15:47:15 89° WSW 15:52:54 10° SSE
Cosmos 2026 Rocket 3.9 15:44:58 10° N 15:51:07 69° ENE 15:57:09 10° SSE
Cosmos 1666 Rocket 4.0 15:47:52 10° N 15:52:06 41° ENE 15:56:17 10° SE
Cosmos 1809 Rocket 4.4 15:46:43 10° N 15:52:50 78° ENE 15:58:56 10° SSE
Cosmos 1125 Rocket 4.1 15:48:46 10° NNW 15:53:36 36° NE 15:58:26 10° ESE
AQUARIUS 4.3 15:49:56 10° SE 15:54:16 51° ENE 15:58:39 10° N
Cosmos 2195 Rocket 4.5 15:49:32 10° N 15:55:45 84° E 16:01:59 10° S
CORIOLIS 4.2 15:50:53 10° SE 15:56:12 60° ENE 16:01:34 10° N
Cosmos 1634 Rocket 4.2 15:50:23 10° SSE 15:56:29 53° E 16:02:36 10° NNE
Meteor 2-21 Rocket 4.5 15:52:08 10° N 15:58:10 58° ENE 16:04:08 10° SSE
Cosmos 1544 4.5 15:56:03 10° NNE 15:58:37 18° ENE 16:01:11 10° ESE
Cosmos 2369 4.3 15:53:09 10° NW 15:58:50 64° WSW 16:04:28 10° SSE
H-2A R/B 2.4 15:55:46 10° SE 16:00:29 40° ENE 16:05:08 10° N
Cosmos 1812 3.5 15:59:59 10° SSE 16:03:25 32° E 16:06:41 11° NNE
MOS 1 Rocket 4.3 15:59:13 10° N 16:04:00 48° WNW 16:08:29 10° SW
SL-16 R/B 2.5 15:58:54 10° NNW 16:04:24 46° NE 16:09:50 10° ESE
PSLV R/B 4.0 16:01:06 10° SE 16:04:37 42° ENE 16:08:14 10° N
Cosmos 2237 Rocket 4.1 16:01:58 10° NNW 16:04:44 14° N 16:07:14 11° NE
ATLAS CENTAUR R/B 3.2 16:01:15 10° WNW 16:04:48 23° NNW 16:08:07 12° NE
GEOS 3 Rocket 4.4 16:00:48 13° E 16:04:51 33° NNE 16:09:25 10° NW
USA 308 2.9 16:01:03 10° WNW 16:05:20 90° NNE 16:09:19 12° ESE
Okean O Rocket 2.6 16:01:49 10° ESE 16:05:30 26° ENE 16:09:12 10° N
Cosmos 2221 3.8 16:01:58 10° SW 16:06:03 41° WNW 16:10:11 10° N
CZ-2C R/B 3.3 16:02:38 10° S 16:07:25 66° WSW 16:12:10 10° NNW
Sich 1 3.0 16:03:32 10° NNW 16:07:52 87° W 16:12:11 10° S
Meteor 1-5 Rocket 4.4 16:03:49 10° N 16:09:46 61° ENE 16:15:35 10° SSE
Cosmos 2082 Rocket 2.4 16:04:37 10° S 16:10:07 55° ESE 16:15:05 13° NE
Cosmos 540 Rocket 3.4 16:05:58 10° SSW 16:11:03 80° ESE 16:16:13 10° NNE
ARGOS 3.7 16:06:46 10° SE 16:11:38 35° ENE 16:16:29 10° N
FengYun 1-2 T 4.4 16:09:37 10° SSE 16:15:11 80° WSW 16:20:45 10° NNW
COSMOS 2455 2.9 16:10:45 10° SSW 16:16:42 68° ESE 16:21:45 15° NE
SMAP 3.1 16:13:11 10° SSE 16:17:52 88° W 16:22:33 10° NNW
H-2A R/B 4.3 16:19:54 13° NNE 16:19:54 13° NNE 16:20:53 10° NNE
NOAA 6 4.0 16:14:13 10° SSE 16:19:21 87° WSW 16:24:31 10° NNW
Cosmos 1805 Rocket 4.3 16:16:05 10° NNW 16:20:20 54° W 16:24:34 10° S
CZ-4 R/B 3.4 16:22:56 13° NNE 16:22:56 13° NNE 16:23:42 10° NNE
Cosmos 2278 4.0 16:15:38 10° NW 16:21:21 72° WSW 16:27:00 10° SSE
deb Chang Zheng 4 4.0 16:17:32 10° SE 16:21:31 37° ENE 16:25:30 10° N
Cosmos 1933 3.6 16:19:11 10° SSW 16:23:12 68° WNW 16:27:14 10° N
Cosmos 1833 Rocket 2.9 16:17:52 10° SW 16:23:30 70° NW 16:28:53 11° NNE
Cosmos 2333 Rocket 3.3 16:18:52 10° NNW 16:23:41 26° NE 16:26:02 20° ENE
SL-16 R/B 4.2 16:24:06 10° NNW 16:26:40 13° N 16:29:10 10° NNE
CZ-4B DEB 4.2 16:22:59 10° SSE 16:28:30 87° ENE 16:34:02 10° NNW
CZ-2C R/B 3.3 16:25:19 16° NE 16:28:41 31° E 16:33:14 10° SSE
USA 305 3.0 16:25:25 10° WNW 16:29:40 76° SSW 16:32:51 17° ESE
Cosmos 1655 Rocket 4.2 16:24:05 10° N 16:30:19 50° ENE 16:36:29 10° SSE
Cosmos 1356 Rocket 3.9 16:27:27 10° N 16:31:21 36° ENE 16:35:17 10° SE
Cosmos 2219 Rocket 3.3 16:27:11 10° NNW 16:31:48 24° NE 16:33:21 22° ENE
Cosmos 1500 4.1 16:29:54 10° NNW 16:33:32 50° W 16:37:08 10° S
Meteor 1-14 Rocket 4.4 16:27:54 10° NNW 16:33:48 87° WSW 16:39:44 10° S
CZ-4B R/B 4.5 16:30:26 10° SSW 16:34:02 36° W 16:37:31 10° NNW
Cosmos 44 Rocket 3.8 16:30:56 10° NW 16:35:50 63° SW 16:40:34 10° SSE
Meteor 2-16 Rocket 4.4 16:31:49 10° N 16:37:59 89° ENE 16:44:08 10° S
Cosmos 1515 Rocket 4.2 16:38:44 10° SSE 16:42:40 32° E 16:43:15 31° ENE
COSMOS 2406 3.5 16:37:26 10° SW 16:43:09 66° NW 16:48:00 15° NNE
Cosmos 1814 Rocket 3.9 16:38:44 10° SSW 16:43:55 73° ESE 16:47:39 19° NNE
Cosmos 921 Rocket 3.4 16:41:09 10° S 16:45:03 38° ESE 16:45:57 34° ENE
MOS 1-B Rocket 4.1 16:44:07 10° NNE 16:50:02 60° ESE 16:56:45 10° S
Cosmos 1570 Rocket 3.9 16:45:35 10° SSW 16:50:47 73° ESE 16:54:14 22° NNE
CZ-4 R/B 4.5 16:47:05 10° SSE 16:51:07 55° ENE 16:55:11 10° N
Cosmos 2298 Rocket 4.1 16:48:48 10° NNW 16:54:10 84° WSW 16:59:30 10° SSE
USA 267 3.4 16:50:26 26° ENE 16:54:12 61° SE 17:00:40 10° SW
CZ-4B R/B 3.0 16:49:12 10° SSE 16:54:34 81° ENE 16:59:54 10° NNW
Cosmos 371 Rocket 3.8 16:50:08 10° NNW 16:54:39 36° NE 16:55:08 36° ENE
CZ-2D R/B 3.7 16:53:08 10° S 16:56:56 63° WSW 17:00:44 10° NNW
COSMO-SKYMED 1 2.7 16:59:10 41° ENE 17:00:06 48° E 17:04:19 10° S
ATLAS CENTAUR R/B 2.3 16:52:18 10° WSW 17:00:14 86° NNW 17:01:30 44° ENE
Cosmos 1633 Rocket 3.7 16:56:10 10° NNW 17:00:29 58° W 17:04:48 10° S
YAOGAN 3 4.4 16:56:17 10° SSE 17:00:36 72° ENE 17:04:58 10° N
USA 306 3.3 16:57:43 10° WNW 17:01:54 58° SSW 17:03:51 29° SE
Cosmos 1666 3.9 16:58:42 10° NNW 17:02:14 43° W 17:05:46 10° SSW
Cosmos 1151 Rocket 3.2 16:58:44 10° SSW 17:03:04 74° WNW 17:06:59 13° N
Meteor 1-27 Rocket 4.1 16:58:16 10° SSE 17:03:18 38° E 17:04:01 37° ENE
Cosmos 1782 4.2 17:01:33 10° SW 17:05:17 38° WNW 17:09:03 10° N
Cosmos 2360 Rocket 2.2 16:59:47 10° NNW 17:05:25 58° NE 17:08:17 28° ESE
APEX 4.3 17:02:20 10° S 17:04:23 26° SSE 17:04:23 26° SSE
SeaSat 1 4.3 17:02:25 11° NNE 17:06:06 24° NW 17:09:59 10° W
Meteor 2-6 Rocket 4.1 17:00:30 10° S 17:06:11 80° E 17:11:23 12° NNE
NOSS 7 (H) 4.4 17:04:05 10° NW 17:07:16 72° NE 17:07:25 71° ENE
SJ-11-01 4.2 17:02:41 10° SSE 17:07:26 84° ENE 17:12:12 10° NNW
Cosmos 2237 4.1 17:02:56 10° NNW 17:08:41 77° ENE 17:13:44 14° SE
YAOGAN 1 3.1 17:11:21 39° NNE 17:11:21 39° NNE 17:14:29 10° N
Cosmos 1900 4.2 17:05:32 10° SSW 17:10:24 77° SE 17:11:52 45° NE
Cosmos 1536 3.5 17:13:48 10° N 17:16:30 39° N 17:16:30 39° N
ATLAS 5 CENTAUR R/B 2.5 17:11:18 10° NW 17:18:30 59° SW 17:19:39 36° SSE
Cosmos 2279 Rocket 4.2 17:13:06 10° SSW 17:19:17 70° WNW 17:25:30 10° N
Cosmos 2266 Rocket 4.0 17:13:06 10° N 17:19:32 87° W 17:25:58 10° S
Cosmos 841 Rocket 4.5 17:16:01 10° SW 17:20:55 43° NW 17:24:31 17° N
Meteor 2-15 4.3 17:15:27 10° S 17:21:33 84° E 17:27:40 10° NNE
ERBS 3.4 17:18:37 10° WNW 17:20:46 35° NW 17:20:46 35° NW
CZ-4C R/B 4.5 17:15:36 10° WNW 17:22:06 36° WSW 17:29:30 10° S
USA 307 3.6 17:18:18 10° WNW 17:22:26 50° SSW 17:23:33 39° SSE
SKYMED 3 4.4 17:23:35 61° NNE 17:24:18 80° ESE 17:28:39 10° SSW
Lacrosse 5 rocket 3.6 17:21:51 10° W 17:24:56 22° SW 17:28:07 10° S
SL-08 RB Rocket 3.6 17:21:29 10° SSE 17:26:07 87° ENE 17:30:44 10° NNW
NOSS 3-4 (A) 3.8 17:20:11 10° NW 17:26:44 59° NNE 17:28:52 43° E
NOSS 3-4 (C) 3.8 17:20:17 10° NW 17:26:50 58° NNE 17:28:56 43° E
Cosmos 1933 Rocket 3.6 17:23:17 10° NNW 17:27:39 78° W 17:31:59 10° S
Cosmos 2322 Rocket 2.4 17:22:23 10° NW 17:28:06 73° WSW 17:33:47 10° SSE
COSMOS 2428 3.4 17:24:00 10° NNW 17:28:43 36° NNE 17:28:43 36° NNE
ATLAS 2AS CENTAUR R/B 3.3 17:22:30 10° NW 17:29:40 43° NNE 17:31:18 38° NE
Cosmos 2208 Rocket 4.2 17:24:45 10° SSW 17:30:11 73° WNW 17:32:51 31° NNE
USA 234 4.2 17:24:07 10° SSE 17:30:20 45° SW 17:36:34 10° WNW
Cosmos 1328 Rocket 4.3 17:28:52 10° SSW 17:33:13 54° WNW 17:36:01 21° N
Cosmos 1544 4.0 17:30:19 10° NNW 17:33:48 46° W 17:37:17 10° S
NOAA 15 4.4 17:29:45 10° SSE 17:35:01 80° ENE 17:40:20 10° NNW
Cosmos 1125 Rocket 4.4 17:30:49 10° NW 17:35:51 48° WSW 17:40:53 10° S
Cosmos 1867 4.1 17:34:07 10° SSW 17:38:28 43° SSE 17:38:28 43° SSE
H-2A R/B 3.5 17:35:19 10° SSW 17:40:00 36° W 17:44:37 10° NNW
Meteor 1-11 Rocket 4.1 17:35:14 10° NNW 17:40:49 64° W 17:46:29 10° S
Okean O Rocket 2.5 17:37:17 10° S 17:41:37 50° W 17:45:59 10° NNW
GEOS 3 Rocket 3.5 17:41:55 70° ESE 17:42:29 80° NE 17:47:41 10° NW
Meteor 1-10 Rocket 4.3 17:37:38 10° SSW 17:43:21 75° WNW 17:47:11 22° N
Cosmos 2322 3.9 17:37:49 10° NNW 17:42:44 50° NNE 17:42:44 50° NNE
USA 308 3.9 17:41:02 10° WNW 17:45:01 39° SSW 17:45:21 38° SSW
ATLAS CENTAUR R/B 3.5 17:41:31 10° NW 17:44:13 20° N 17:44:13 20° N
USA 32 3.9 17:39:57 10° S 17:45:10 86° E 17:46:22 55° NNE
SKYMED 2 3.9 17:47:47 58° NW 17:48:14 63° WNW 17:52:31 10° SSW
SL-16 R/B 3.3 17:43:11 10° NW 17:48:30 42° WSW 17:53:47 10° S
IRS-1C Rocket 4.3 17:51:33 58° N 17:51:33 58° N 17:55:52 10° NNW
Cosmos 2237 Rocket 3.7 17:46:09 10° NNW 17:49:04 22° N 17:49:04 22° N
ARGOS 4.1 17:46:34 10° S 17:51:47 48° W 17:57:01 10° NNW
Cosmos 2082 Rocket 3.4 17:49:11 10° WSW 17:54:28 38° NW 17:56:57 26° N
CZ-4 R/B 3.8 17:58:56 14° NNW 17:58:56 14° NNW 17:59:35 10° NNW
Cosmos 1244 Rocket 4.3 17:51:16 10° N 17:57:36 74° ENE 17:57:59 71° ESE
COSMOS 2455 3.9 17:57:26 10° WSW 18:03:04 39° NNW 18:04:54 32° N
Cosmos 2333 Rocket 2.3 18:02:59 10° NNW 18:08:05 69° NNW 18:08:05 69° NNW
CZ-2C R/B 3.3 18:06:50 28° N 18:09:13 49° WNW 18:14:11 10° SW
SL-16 R/B 4.2 18:09:03 10° NNW 18:11:02 16° N 18:11:02 16° N
Cosmos 2219 Rocket 2.8 18:10:55 10° NNW 18:15:05 49° NNW 18:15:05 49° NNW
Aureole 3 Rocket 4.2 18:14:46 10° SSW 18:19:40 63° WNW 18:26:40 10° N
USA 267 3.3 18:37:47 73° NW 18:37:47 73° NW 18:43:55 10° W
Cosmos 2360 Rocket 3.7 18:44:11 10° NW 18:49:09 32° WSW 18:50:07 30° SW
ATLAS 2AS CENTAUR R/B 3.7 19:14:01 10° NW 19:18:44 43° NW 19:18:44 43° NW
